Regional Weather Roundup
Issued by NWS State College, PA

Home | Current Version | Previous Version | Text Only | Print | Product List | Glossary On
Versions: 1 2 3 4 5 6 7 8 9 10 11 12 13 14 15 16 17 18 19 20 21 22 23 24 25 26 27 28 29 30 31 32 33 34 35 36 37 38 39 40 41 42 43 44 45 46 47 48 49 50
000
ASUS41 KCTP 271003
RWRCTP

REGIONAL WEATHER ROUNDUP
NATIONAL WEATHER SERVICE STATE COLLEGE PA
600 AM EDT MON APR 27 2015

Note: "fair" indicates few or no clouds below 12,000 feet with no
significant weather and/or obstructions to visibility.

* = STATION THAT DOES NOT REPORT PRECIPITATION /E.G. RAIN...SNOW...ETC/
    THUNDER OR FOG.

PAZ002>004-007>009-013>016-020>023-029>032-271100-
WESTERN PENNSYLVANIA

CITY           SKY/WX    TMP DP  RH WIND       PRES   REMARKS
ERIE           LGT RAIN  39  35  86 W5        29.83S
MEADVILLE      CLOUDY    38  32  79 W5        29.81S
FRANKLIN*      PTCLDY    36  28  75 W3        29.82R
NEW CASTLE     CLOUDY    37  33  85 CALM      29.85R
BEAVER COUNTY  NOT AVBL
BUTLER*        CLOUDY    36  30  80 CALM      29.83S
PITTSBURGH INT PTCLDY    37  31  78 NW8       29.82S
PITTSBURGH     CLEAR     38  28  67 NW8       29.81R
INDIANA*       MOCLDY    39  34  81 CALM      29.82R
LATROBE        PTCLDY    37  32  81 S7        29.82S
WASHINGTON CO* CLEAR     36  28  75 CALM      29.84S
$$

PAZ004>006-010>012-017>019-024>028-033>037-041-042-045-046-049>053-271100-
CENTRAL PENNSYLVANIA

CITY           SKY/WX    TMP DP  RH WIND       PRES   REMARKS
BRADFORD       CLOUDY    37  30  75 NW6       29.75S
DUBOIS         MOCLDY    37  31  78 W5        29.75F
CLEARFIELD     PTCLDY    40  30  67 NW7       29.75S
JOHNSTOWN      MOCLDY    38  30  73 W8        29.74S
ALTOONA        CLOUDY    43  32  65 NW6       29.75F
STATE COLLEGE  CLOUDY    45  32  61 NW3       29.74S
WILLIAMSPORT   CLOUDY    46  32  58 W7        29.73S
SELINSGROVE    CLOUDY    42  36  79 N3        29.74S
FT INDIANTOWN  CLOUDY    48  29  48 W5        29.72F
CAPITAL CITY   CLOUDY    45  30  55 W5        29.74S
HARRISBURG     CLOUDY    45  33  63 NW8       29.73S
YORK           MOCLDY    35  31  85 CALM      29.73S
$$

PAZ038>040-043-044-047-048-054-055-060>062-067>071-271100-
EASTERN PENNSYLVANIA

CITY           SKY/WX    TMP DP  RH WIND       PRES   REMARKS
SCRANTON       CLOUDY    44  31  60 SE3       29.70S
MOUNT POCONO   CLOUDY    39  30  70 NW9       29.67S
ALLENTOWN      CLOUDY    47  32  56 NW6       29.71R
QUAKERTOWN*    CLOUDY    45  32  61 NW6       29.71S
READING        CLOUDY    44  33  65 CALM      29.71F
LANCASTER      CLOUDY    41  33  73 W6        29.72F
COATESVILLE    CLOUDY    43  32  65 W6        29.72S
POTTSTOWN      CLOUDY    43  31  62 W3        29.73S
BLUE BELL      CLOUDY    45  32  61 CALM      29.70S
DOYLESTOWN     CLOUDY    44  32  62 NW8       29.69F
WILLOW GROVE   NOT AVBL
NORTH PHILA    CLOUDY    47  29  49 W7        29.72S
PHILADELPHIA   CLOUDY    49  29  46 W9        29.72F
$$



USA.gov is the U.S. government's official web portal to all federal, state and local government web resources and services.